TimeCDT,TemperatureF,Dew PointF,Humidity,Sea Level PressureIn,VisibilityMPH,Wind Direction,Wind SpeedMPH,Gust SpeedMPH,PrecipitationIn,Events,Conditions,WindDirDegrees,DateUTC
12:51 AM,69.1,59.0,70,30.07,10.0,ENE,6.9,-,N/A,,Overcast,60,2012-10-09 05:51:00
1:51 AM,69.1,59.0,70,30.05,10.0,ENE,6.9,-,N/A,,Overcast,60,2012-10-09 06:51:00
2:51 AM,68.0,60.8,78,30.04,10.0,NNE,3.5,-,N/A,,Mostly Cloudy,20,2012-10-09 07:51:00
3:44 AM,69.8,60.8,73,30.03,10.0,NNE,4.6,-,N/A,,Overcast,20,2012-10-09 08:44:00
3:51 AM,69.1,61.0,75,30.03,10.0,North,4.6,-,N/A,,Overcast,10,2012-10-09 08:51:00
4:47 AM,68.0,60.8,78,30.02,10.0,North,6.9,-,N/A,,Overcast,360,2012-10-09 09:47:00
4:51 AM,68.0,60.1,76,30.02,10.0,North,6.9,-,N/A,,Overcast,360,2012-10-09 09:51:00
5:51 AM,66.9,59.0,76,30.02,10.0,North,4.6,-,N/A,,Scattered Clouds,360,2012-10-09 10:51:00
6:40 AM,66.2,59.0,78,30.03,10.0,North,4.6,-,N/A,,Mostly Cloudy,360,2012-10-09 11:40:00
6:51 AM,66.2,60.8,83,30.02,10.0,North,5.8,-,N/A,,Mostly Cloudy,360,2012-10-09 11:51:00
7:39 AM,66.2,60.8,83,30.03,10.0,NNW,4.6,-,N/A,,Mostly Cloudy,340,2012-10-09 12:39:00
7:51 AM,66.9,60.1,79,30.03,10.0,North,8.1,-,N/A,,Scattered Clouds,10,2012-10-09 12:51:00
8:51 AM,69.8,60.8,73,30.04,10.0,North,3.5,-,N/A,,Scattered Clouds,360,2012-10-09 13:51:00
9:51 AM,75.9,64.9,69,30.06,10.0,Calm,Calm,-,N/A,,Scattered Clouds,0,2012-10-09 14:51:00
10:51 AM,82.9,68.0,60,30.05,10.0,SE,11.5,-,N/A,,Scattered Clouds,140,2012-10-09 15:51:00
11:51 AM,86.0,68.0,55,30.04,9.0,South,15.0,-,N/A,,Scattered Clouds,170,2012-10-09 16:51:00
12:51 PM,86.0,68.0,55,30.01,10.0,SSE,17.3,20.7,N/A,,Overcast,150,2012-10-09 17:51:00
1:51 PM,88.0,68.0,51,29.99,10.0,SSE,19.6,-,N/A,,Mostly Cloudy,160,2012-10-09 18:51:00
2:51 PM,88.0,69.1,53,29.96,10.0,SE,17.3,-,N/A,,Mostly Cloudy,140,2012-10-09 19:51:00
3:51 PM,88.0,69.1,53,29.94,10.0,SE,17.3,-,N/A,,Mostly Cloudy,140,2012-10-09 20:51:00
4:51 PM,86.0,69.1,57,29.93,10.0,SE,18.4,-,N/A,,Scattered Clouds,130,2012-10-09 21:51:00
5:51 PM,84.0,69.1,61,29.94,10.0,SE,16.1,-,N/A,,Scattered Clouds,140,2012-10-09 22:51:00
6:51 PM,82.0,69.1,65,29.94,10.0,SE,18.4,-,N/A,,Scattered Clouds,130,2012-10-09 23:51:00
7:51 PM,80.1,70.0,71,29.95,10.0,SE,11.5,-,N/A,,Partly Cloudy,130,2012-10-10 00:51:00
8:51 PM,79.0,70.0,74,29.96,10.0,SE,10.4,-,N/A,,Partly Cloudy,140,2012-10-10 01:51:00
9:51 PM,78.1,70.0,76,29.98,10.0,SE,10.4,-,N/A,,Partly Cloudy,140,2012-10-10 02:51:00
10:51 PM,78.1,71.1,79,29.99,10.0,SSE,10.4,-,N/A,,Partly Cloudy,150,2012-10-10 03:51:00
11:51 PM,77.0,71.1,82,29.99,10.0,SSE,9.2,-,N/A,,Clear,150,2012-10-10 04:51:00